TimePST,TemperatureF,Dew PointF,Humidity,Sea Level PressureIn,VisibilityMPH,Wind Direction,Wind SpeedMPH,Gust SpeedMPH,PrecipitationIn,Events,Conditions,WindDirDegrees,DateUTC
12:07 AM,19.4,15.8,86,30.39,1.0,ENE,5.8,-,N/A,,Mist,70,2013-01-21 08:07:00
12:14 AM,19.4,15.8,86,30.39,0.8,ENE,4.6,-,N/A,,Mist,70,2013-01-21 08:14:00
12:24 AM,19.4,15.8,86,30.39,1.5,East,3.5,-,N/A,,Overcast,80,2013-01-21 08:24:00
12:37 AM,19.4,17.6,93,30.38,0.5,Calm,Calm,-,N/A,Fog,Light Freezing Fog,0,2013-01-21 08:37:00
12:53 AM,19.9,16.0,85,30.46,0.8,East,4.6,-,N/A,,Overcast,90,2013-01-21 08:53:00
12:57 AM,19.4,15.8,86,30.38,2.5,East,4.6,-,N/A,,Overcast,80,2013-01-21 08:57:00
1:12 AM,19.4,15.8,86,30.38,1.5,ENE,5.8,-,N/A,,Overcast,70,2013-01-21 09:12:00
1:26 AM,19.4,15.8,86,30.38,0.8,Calm,Calm,-,N/A,,Overcast,0,2013-01-21 09:26:00
1:36 AM,19.4,15.8,86,30.38,2.0,ENE,3.5,-,N/A,,Overcast,60,2013-01-21 09:36:00
1:48 AM,19.4,15.8,86,30.38,1.2,East,3.5,-,N/A,,Overcast,80,2013-01-21 09:48:00
1:53 AM,19.9,16.0,85,30.47,1.2,East,3.5,-,N/A,,Overcast,90,2013-01-21 09:53:00
1:59 AM,19.4,15.8,86,30.39,3.0,ENE,3.5,-,N/A,,Overcast,70,2013-01-21 09:59:00
2:19 AM,19.4,15.8,86,30.39,1.8,Calm,Calm,-,N/A,,Overcast,0,2013-01-21 10:19:00
2:45 AM,19.4,15.8,86,30.38,0.5,ENE,3.5,-,N/A,Fog,Light Freezing Fog,60,2013-01-21 10:45:00
2:53 AM,19.9,16.0,85,30.46,0.5,ENE,3.5,-,N/A,Fog,Light Freezing Fog,60,2013-01-21 10:53:00
3:03 AM,19.4,15.8,86,30.38,0.8,Calm,Calm,-,N/A,,Overcast,0,2013-01-21 11:03:00
3:10 AM,19.4,15.8,86,30.38,1.2,Calm,Calm,-,N/A,,Overcast,0,2013-01-21 11:10:00
3:40 AM,19.4,15.8,86,30.37,0.5,Calm,Calm,-,N/A,Fog,Light Freezing Fog,0,2013-01-21 11:40:00
3:53 AM,19.9,16.0,85,30.45,0.8,Calm,Calm,-,N/A,,Overcast,0,2013-01-21 11:53:00
4:05 AM,19.4,15.8,86,30.37,0.5,East,3.5,-,N/A,Fog,Light Freezing Fog,90,2013-01-21 12:05:00
4:18 AM,19.4,15.8,86,30.37,1.0,ENE,5.8,-,N/A,,Mist,60,2013-01-21 12:18:00
4:53 AM,19.9,17.1,89,30.44,1.8,Calm,Calm,-,N/A,,Overcast,0,2013-01-21 12:53:00
5:28 AM,19.4,15.8,86,30.35,3.0,Calm,Calm,-,N/A,,Overcast,0,2013-01-21 13:28:00
5:46 AM,19.4,15.8,86,30.35,1.8,Calm,Calm,-,N/A,,Overcast,0,2013-01-21 13:46:00
5:53 AM,19.9,16.0,85,30.43,1.0,Calm,Calm,-,N/A,,Overcast,0,2013-01-21 13:53:00
6:53 AM,19.9,16.0,85,30.43,1.0,Calm,Calm,-,N/A,,Overcast,0,2013-01-21 14:53:00
7:53 AM,19.9,17.1,89,30.44,0.5,Calm,Calm,-,N/A,Fog,Light Freezing Fog,0,2013-01-21 15:53:00
8:53 AM,21.0,18.0,88,30.44,1.0,Calm,Calm,-,N/A,,Overcast,0,2013-01-21 16:53:00
9:53 AM,21.0,18.0,88,30.44,1.0,Calm,Calm,-,N/A,,Overcast,0,2013-01-21 17:53:00
10:27 AM,21.2,17.6,86,30.35,2.0,Calm,Calm,-,N/A,,Overcast,0,2013-01-21 18:27:00
10:53 AM,21.9,18.0,85,30.43,2.5,WSW,3.5,-,N/A,,Overcast,240,2013-01-21 18:53:00
11:53 AM,21.9,19.0,89,30.42,2.5,Variable,3.5,-,N/A,,Overcast,0,2013-01-21 19:53:00
12:53 PM,23.0,19.9,88,30.40,2.0,Calm,Calm,-,N/A,,Overcast,0,2013-01-21 20:53:00
1:53 PM,23.0,19.9,88,30.39,2.0,Calm,Calm,-,N/A,,Overcast,0,2013-01-21 21:53:00
2:53 PM,23.0,19.9,88,30.36,2.0,Calm,Calm,-,N/A,,Overcast,0,2013-01-21 22:53:00
3:49 PM,24.8,19.4,80,30.28,1.2,Calm,Calm,-,N/A,,Overcast,0,2013-01-21 23:49:00
3:53 PM,24.1,19.9,84,30.36,1.2,Calm,Calm,-,N/A,,Overcast,0,2013-01-21 23:53:00
4:15 PM,24.8,19.4,80,30.28,0.5,Calm,Calm,-,N/A,,Haze,0,2013-01-22 00:15:00
4:53 PM,23.0,19.9,88,30.36,0.5,Calm,Calm,-,N/A,Fog,Light Freezing Fog,0,2013-01-22 00:53:00
5:19 PM,24.8,19.4,80,30.27,1.0,Calm,Calm,-,N/A,,Mist,0,2013-01-22 01:19:00
5:29 PM,24.8,19.4,80,30.27,0.5,Calm,Calm,-,N/A,Fog,Light Freezing Fog,0,2013-01-22 01:29:00
5:53 PM,24.1,21.0,88,30.36,0.2,Calm,Calm,-,N/A,Fog,Light Freezing Fog,0,2013-01-22 01:53:00
6:53 PM,23.0,19.0,85,30.36,0.5,Calm,Calm,-,N/A,Fog,Light Freezing Fog,0,2013-01-22 02:53:00
7:00 PM,23.0,19.4,86,30.28,1.0,Calm,Calm,-,N/A,,Overcast,0,2013-01-22 03:00:00
7:53 PM,23.0,19.9,88,30.37,0.5,Calm,Calm,-,N/A,Fog,Light Freezing Fog,0,2013-01-22 03:53:00
8:14 PM,23.0,19.4,86,30.29,0.8,SW,3.5,-,N/A,,Overcast,230,2013-01-22 04:14:00
8:26 PM,23.0,19.4,86,30.29,0.5,Calm,Calm,-,N/A,Fog,Light Freezing Fog,0,2013-01-22 04:26:00
8:53 PM,21.9,19.0,89,30.38,0.5,Calm,Calm,-,N/A,Fog,Light Freezing Fog,0,2013-01-22 04:53:00
9:51 PM,21.2,17.6,86,30.29,1.0,West,3.5,-,N/A,,Overcast,260,2013-01-22 05:51:00
9:53 PM,21.0,18.0,88,30.38,1.2,West,3.5,-,N/A,,Overcast,260,2013-01-22 05:53:00
10:02 PM,21.2,17.6,86,30.29,2.5,West,3.5,-,N/A,,Overcast,260,2013-01-22 06:02:00
10:09 PM,21.2,17.6,86,30.29,3.0,WSW,3.5,-,N/A,,Overcast,250,2013-01-22 06:09:00
10:53 PM,18.0,12.9,81,30.39,5.0,WSW,5.8,-,N/A,,Haze,250,2013-01-22 06:53:00
11:53 PM,17.1,12.0,81,30.39,6.0,West,4.6,-,N/A,,Haze,260,2013-01-22 07:53:00